Weather History for Corpus Christi, TX

Change the Weather History Date:

Monday, April 2, 2012

  Actual Average Record
Temperature  
Mean Temperature 76 °F 70 °F  
Max Temperature 86 °F 79 °F 95 °F (1982)
Min Temperature 65 °F 60 °F 43 °F (2005)
Degree Days  
Heating Degree Days 0 1  
Month to date heating degree days 0 2  
Since 1 July heating degree days 611 883  
Cooling Degree Days 11 6  
Month to date cooling degree days 25 12  
Year to date cooling degree days 428 203  
Growing Degree Days 24 (Base 50)    
Moisture  
Dew Point 69 °F    
Average Humidity 78    
Maximum Humidity 87    
Minimum Humidity 69    
Precipitation  
Precipitation 0.41 in 0.06 in 3.34 in (1997)
Month to date precipitation 0.41 0.11  
Year to date precipitation 6.30 5.47  
Snow  
Snow 0.00 in - - ()
Month to date snowfall 0.0  
Since 1 July snowfall 0.0  
Snow Depth 0.00 in    
Sea Level Pressure  
Sea Level Pressure 29.64 in    
Wind  
Wind Speed 20 mph (SSE)    
Max Wind Speed 39 mph    
Max Gust Speed 51 mph    
Visibility 8 miles    
Events Rain , Thunderstorm    
T = Trace of Precipitation, MM = Missing Value Source: NWS Daily Summary

Daily Weather History Graph

Daily Weather History Graph

Search for Another Location

Airport:

Trip Planner

Search our weather history database for the weather conditions in past years. The results will help you decide how hot, cold, wet, or windy it might be!

Date:

Astronomy

Apr. 02, 2012 Rise Set
Actual Time 7:18 AM CDT 7:48 PM CDT
Civil Twilight 6:55 AM CDT 8:12 PM CDT
Nautical Twilight 6:27 AM CDT 8:39 PM CDT
Astronomical Twilight 5:59 AM CDT 9:07 PM CDT
Moon 3:46 PM CDT (4/2) 4:09 AM CDT (4/2)
Length of Visible Light 13h 16m
Length of Day
12h 29m
Waxing Gibbous, 78% of the Moon is Illuminated
Apr 2
Waxing Gibbous
Apr 6
Full
Apr 13
Last Quarter
Apr 21
New
Apr 29
First Quarter

Hourly Weather History & Observations

Time (CDT) Temp. Heat Index Dew Point Humidity Pressure Visibility Wind Dir Wind Speed Gust Speed Precip Events Conditions
12:51 AM 75.9 °F - 72.0 °F 87% 29.70 in 8.0 mi SE 18.4 mph - N/A   Mostly Cloudy
1:05 AM 75.2 °F - 71.6 °F 89% 29.70 in 8.0 mi SE 16.1 mph - N/A   Scattered Clouds
1:51 AM 75.0 °F - 72.0 °F 90% 29.67 in 8.0 mi SE 15.0 mph - N/A   Partly Cloudy
2:51 AM 75.0 °F - 72.0 °F 90% 29.70 in 8.0 mi WNW 3.5 mph - N/A   Mostly Cloudy
3:05 AM 75.2 °F - 71.6 °F 89% 29.72 in 8.0 mi WNW 11.5 mph - N/A Thunderstorm Thunderstorm
3:22 AM 68.0 °F - 60.8 °F 78% 29.77 in 3.0 mi WNW 28.8 mph 50.6 mph 0.03 in Rain , Thunderstorm Heavy Thunderstorms and Rain
3:26 AM 66.2 °F - 60.8 °F 83% 29.75 in 2.0 mi NW 24.2 mph 43.7 mph 0.12 in Rain , Thunderstorm Heavy Thunderstorms and Rain
3:32 AM 64.4 °F - 60.8 °F 88% 29.73 in 3.0 mi NW 24.2 mph 32.2 mph 0.33 in Rain , Thunderstorm Heavy Thunderstorms and Rain
3:40 AM 64.4 °F - 60.8 °F 88% 29.71 in 7.0 mi NNW 18.4 mph - 0.40 in Rain , Thunderstorm Thunderstorms and Rain
3:51 AM 66.0 °F - 61.0 °F 84% 29.68 in 10.0 mi North 9.2 mph - 0.41 in Rain , Thunderstorm Light Thunderstorms and Rain
4:51 AM 66.0 °F - 63.0 °F 90% 29.63 in 10.0 mi ESE 16.1 mph - 0.00 in Thunderstorm Thunderstorm
5:01 AM 66.2 °F - 62.6 °F 88% 29.64 in 10.0 mi ESE 6.9 mph - N/A   Scattered Clouds
5:51 AM 66.9 °F - 63.0 °F 87% 29.64 in 10.0 mi SSE 10.4 mph - N/A   Partly Cloudy
6:51 AM 69.1 °F - 62.1 °F 78% 29.63 in 10.0 mi SSE 15.0 mph - N/A   Partly Cloudy
7:51 AM 71.1 °F - 64.9 °F 81% 29.60 in 10.0 mi SSE 25.3 mph - N/A   Partly Cloudy
8:51 AM 73.9 °F - 69.1 °F 85% 29.62 in 8.0 mi SSE 23.0 mph - N/A   Partly Cloudy
9:42 AM 77.0 °F - 71.6 °F 83% 29.66 in 7.0 mi SSE 18.4 mph 24.2 mph N/A   Mostly Cloudy
9:51 AM 77.0 °F - 72.0 °F 84% 29.66 in 7.0 mi SSE 17.3 mph - N/A   Mostly Cloudy
10:11 AM 78.8 °F - 71.6 °F 78% 29.66 in 7.0 mi South 19.6 mph 26.5 mph N/A   Mostly Cloudy
10:51 AM 79.0 °F - 72.0 °F 79% 29.66 in 8.0 mi South 25.3 mph 32.2 mph N/A   Mostly Cloudy
11:51 AM 80.1 °F 83.6 °F 71.1 °F 74% 29.65 in 8.0 mi South 24.2 mph 29.9 mph N/A   Mostly Cloudy
12:14 PM 82.4 °F 87.2 °F 71.6 °F 70% 29.66 in 10.0 mi South 23.0 mph 28.8 mph N/A   Mostly Cloudy
12:51 PM 82.9 °F 88.8 °F 73.0 °F 72% 29.64 in 10.0 mi SSE 19.6 mph - N/A   Mostly Cloudy
1:51 PM 84.0 °F 91.2 °F 73.9 °F 72% 29.62 in 10.0 mi SSE 18.4 mph 24.2 mph N/A   Mostly Cloudy
2:51 PM 84.9 °F 92.1 °F 73.9 °F 69% 29.60 in 8.0 mi SSE 24.2 mph 31.1 mph N/A   Scattered Clouds
3:51 PM 84.9 °F 92.1 °F 73.9 °F 69% 29.58 in 8.0 mi SSE 24.2 mph 35.7 mph N/A   Partly Cloudy
4:51 PM 84.9 °F 91.4 °F 73.0 °F 67% 29.56 in 8.0 mi SSE 27.6 mph 34.5 mph N/A   Partly Cloudy
5:51 PM 82.9 °F 88.0 °F 72.0 °F 69% 29.55 in 9.0 mi SSE 29.9 mph 36.8 mph N/A   Clear
6:51 PM 80.1 °F 83.8 °F 72.0 °F 76% 29.55 in 8.0 mi SSE 28.8 mph - N/A   Clear
7:51 PM 77.0 °F - 72.0 °F 84% 29.58 in 8.0 mi SSE 23.0 mph 28.8 mph N/A   Clear
8:38 PM 75.2 °F - 71.6 °F 89% 29.60 in 10.0 mi SSE 18.4 mph - N/A   Partly Cloudy
8:51 PM 75.9 °F - 72.0 °F 87% 29.60 in 10.0 mi SSE 20.7 mph - N/A   Mostly Cloudy
8:56 PM 75.2 °F - 71.6 °F 89% 29.60 in 9.0 mi SSE 21.9 mph 27.6 mph N/A   Mostly Cloudy
9:08 PM 75.2 °F - 71.6 °F 89% 29.60 in 9.0 mi SSE 20.7 mph - N/A   Scattered Clouds
9:51 PM 75.0 °F - 72.0 °F 90% 29.61 in 9.0 mi SSE 19.6 mph - N/A   Partly Cloudy
10:49 PM 75.2 °F - 71.6 °F 89% 29.63 in 10.0 mi SE 18.4 mph - N/A   Mostly Cloudy
10:51 PM 75.9 °F - 71.1 °F 85% 29.63 in 10.0 mi SE 19.6 mph - N/A   Mostly Cloudy
11:51 PM 75.9 °F - 72.0 °F 87% 29.64 in 9.0 mi SSE 18.4 mph - N/A   Overcast